Regional Weather Roundup
Issued by NWS

Home | Current Version | Previous Version | Graphics & Text | Print | Product List | Glossary On
Versions: 1 2 3 4 5 6 7 8 9 10 11 12 13 14 15 16 17 18 19 20 21 22 23 24 25 26 27 28 29 30 31 32 33 34 35 36 37 38 39 40 41 42 43 44 45 46 47 48 49 50
000
ASUS45 KABQ 181001
RWRNM
NEW MEXICO REGIONAL WEATHER ROUNDUP
NATIONAL WEATHER SERVICE ALBUQUERQUE NM
400 AM MDT FRI AUG 18 2017

NOTE: "FAIR" MEANS FEW OR NO CLOUDS BELOW 12,000 FEET AGL WITH NO
       SIGNIFICANT WEATHER OR OBSTRUCTIONS TO VISION.

      THIS PRODUCT IS RELEASED AS TWO VERSIONS.  ONE VERSION NEAR
      THE TOP OF THE HOUR CONTAINING PRELIMINARY DATA FROM ALBUQUERQUE
      AND OTHER STATIONS.  A FINAL VERSION WITH ADDITIONAL DATA IS
      ISSUED ABOUT 10 MINUTES AFTER THE HOUR.

NMZ501-503-504-510>518-181100-
NORTHWEST PLATEAU/NORTHCENTRAL MOUNTAINS

CITY           SKY/WX    TMP DP  RH WIND       PRES   REMARKS
FARMINGTON     FAIR      58  37  45 NE8       30.19S
LOS ALAMOS     CLOUDY    66  32  28 CALM      30.31S
SANTA FE       MOCLDY    61  40  45 SE7       30.24R
TAOS           FAIR      48  37  65 N8        30.33F
ANGEL FIRE     FAIR      36  34  90 CALM      30.43S

$$
NMZ402-403-502-505>509-181100-
WESTCENTRAL MOUNTAINS/SOUTHWEST MOUNTAINS

CITY           SKY/WX    TMP DP  RH WIND       PRES   REMARKS
GALLUP         FAIR      48  27  44 E6        30.28S
GRANTS         FAIR      52  27  38 NW3       30.29S
SILVER CITY    FAIR      60  40  48 N10       30.19S

$$
NMZ407-409-411-412-181100-
SOUTHERN DESERTS

CITY           SKY/WX    TMP DP  RH WIND       PRES   REMARKS
DEMING         FAIR      67  44  43 SW6       30.10F
LAS CRUCES     FAIR      70  53  55 E6        30.13R
HOLLOMAN AFB   FAIR      74  56  52 S10       30.11S
ALAMOGORDO     FAIR      75  54  46 S10       30.11S
T OR C         FAIR      74  40  29 W12       30.12S

$$
NMZ519>523-181100-
CENTRAL VALLEYS/CENTRAL HIGHLANDS

CITY           SKY/WX    TMP DP  RH WIND       PRES   REMARKS
ALBUQUERQUE    FAIR      72  39  30 E3        30.16S
CLINES CORNERS FAIR      60  37  42 SW15      30.29F
BELEN          NOT AVBL
SOCORRO        FAIR      66  42  41 N6        30.14R

$$
NMZ524>526-539-540-181100-
SOUTHCENTRAL MOUNTAINS

CITY           SKY/WX    TMP DP  RH WIND       PRES   REMARKS
RUIDOSO        FAIR      61  41  48 NW5       30.31S

$$
NMZ527>531-181100-
NORTHEAST HIGHLANDS/NORTHEAST PLAINS

CITY           SKY/WX    TMP DP  RH WIND       PRES   REMARKS
LAS VEGAS      FAIR      55  47  74 N8        30.28S
RATON          FAIR      54  48  80 VRB3      30.24S
CLAYTON        FAIR      59  59 100 S8        30.15F

$$
NMZ532>537-181100-
EASTCENTRAL PLAINS

CITY           SKY/WX    TMP DP  RH WIND       PRES   REMARKS
SANTA ROSA     FAIR      64  58  80 SE8       30.14R
TUCUMCARI      FAIR      74  62  66 CALM      30.11S
CANNON AFB     FAIR      65  65 100 W6        30.14S
CLOVIS AIRPORT FAIR      65  63  93 SW8       30.13S

$$
NMZ028-029-538-181100-
SOUTHEAST PLAINS

CITY           SKY/WX    TMP DP  RH WIND       PRES   REMARKS
ROSWELL        FAIR      69  61  75 S7        30.08S
ARTESIA        FAIR      70  63  78 SE5       30.08S
CARLSBAD       FAIR      68  67  96 SW5       30.05F
HOBBS          FAIR      66  63  88 CALM      30.09S


$$



USA.gov is the U.S. government's official web portal to all federal, state and local government web resources and services.